Location: ????????
(55.0559°N, 39.1270°E)
Time: 00:12:20
(UTC+00:00)

Resurs 1-4 Rocket - Pass Details

Date: 15 November 2025
Orbit: 799 x 811 km, 98.8° (Epoch: 11 December)

Event Time Altitude Azimuth Distance (km) Brightness Sun altitude
Rises 00:45:39 0° 14° (NNE) 3,340 5.7 -35.2°
Reaches altitude 10° 00:48:01 10° 11° (N) 2,406 4.8 -34.9°
Enters shadow 00:49:16 18° 7° (N) 1,931 4.3 -34.7°
